CW1490 Weather Reports


time (UTC)temp
C
wind
direction
speed
KPH
gust
KPH
rain 1hr
cm
rain 24hr
cm
rain mn
cm
humidity
%
barometer
mb
20260508133509 10 265 4.8 16.1 0.00 0.00 0.00 52 1010.8
20260508133030 10 325 3.2 16.1 0.00 0.00 0.00 54 1010.9
20260508132507 9 298 1.6 14.5 0.00 0.00 0.00 60 1010.9
20260508132007 10 334 4.8 14.5 0.00 0.00 0.00 53 1010.9
20260508131523 10 293 4.8 17.7 0.00 0.00 0.00 64 1010.9
20260508131007 10 328 6.4 17.7 0.00 0.00 0.00 55 1011.0
20260508130511 10 340 3.2 20.9 0.00 0.00 0.00 58 1010.9
20260508130024 10 261 8.0 20.9 0.00 0.00 0.00 55 1010.9
20260508125511 9 51 1.6 14.5 0.00 0.00 0.00 60 1011.0
20260508125011 9 259 3.2 16.1 0.00 0.00 0.00 57 1011.0
20260508124528 8 265 6.4 16.1 0.00 0.00 0.00 60 1011.0
20260508124012 8 244 6.4 16.1 0.00 0.00 0.00 64 1011.1
20260508123503 7 225 3.2 12.9 0.00 0.00 0.00 64 1011.1
20260508123016 6 221 4.8 17.7 0.00 0.00 0.00 67 1011.1
20260508122506 6 175 3.2 17.7 0.00 0.00 0.00 66 1011.1
20260508122011 6 212 4.8 16.1 0.00 0.00 0.00 69 1011.1
20260508121520 6 167 8.0 14.5 0.00 0.00 0.00 71 1011.0
20260508121012 6 194 6.4 20.9 0.00 0.00 0.00 74 1011.0
20260508120508 6 198 11.3 20.9 0.00 0.00 0.00 73 1010.9
20260508120024 5 183 8.0 16.1 0.00 0.00 0.00 77 1011.0
20260508115515 5 153 8.0 12.9 0.00 0.00 0.00 77 1011.1
20260508115011 5 201 8.0 16.1 0.00 0.00 0.00 79 1011.0
20260508114524 5 190 6.4 16.1 0.00 0.00 0.00 79 1011.0
20260508114014 5 196 8.0 16.1 0.00 0.00 0.00 78 1011.0
20260508113510 5 200 9.7 16.1 0.00 0.00 0.00 78 1011.0
20260508113026 5 212 6.4 12.9 0.00 0.00 0.00 80 1011.0
20260508112512 5 178 6.4 12.9 0.00 0.00 0.00 82 1010.9
20260508112009 5 157 8.0 12.9 0.00 0.00 0.00 84 1010.8
20260508111520 4 163 8.0 11.3 0.00 0.00 0.00 86 1010.8
20260508111011 3 175 6.4 12.9 0.00 0.00 0.00 87 1010.7
20260508110507 3 182 6.4 14.5 0.00 0.00 0.00 89 1010.7
20260508110029 2 236 4.8 14.5 0.00 0.00 0.00 89 1010.7
20260508105510 2 183 8.0 12.9 0.00 0.00 0.00 90 1010.6
20260508105009 2 202 8.0 12.9 0.00 0.00 0.00 90 1010.7
20260508104524 2 186 6.4 11.3 0.00 0.00 0.00 90 1010.7
20260508104002 2 212 3.2 11.3 0.00 0.00 0.00 90 1010.7
20260508103503 2 207 6.4 11.3 0.00 0.00 0.00 91 1010.7
20260508103003 1 221 6.4 11.3 0.00 0.00 0.00 91 1010.6
20260508102501 1 196 4.8 9.7 0.00 0.00 0.00 91 1010.4
20260508102003 1 207 4.8 8.0 0.00 0.00 0.00 91 1010.4
20260508101513 1 212 1.6 8.0 0.00 0.00 0.00 91 1010.3
20260508101002 1 205 3.2 8.0 0.00 0.00 0.00 91 1010.3
20260508100502 1 184 4.8 11.3 0.00 0.00 0.00 91 1010.3
20260508100005 1 224 6.4 14.5 0.00 0.00 0.00 91 1010.3
20260508095503 1 210 8.0 14.5 0.00 0.00 0.00 91 1010.4
20260508095003 1 200 8.0 14.5 0.00 0.00 0.00 91 1010.3
20260508094502 0 216 6.4 9.7 0.00 0.00 0.00 91 1010.3
20260508094002 0 221 4.8 8.0 0.00 0.00 0.00 91 1010.3
20260508093502 0 218 3.2 8.0 0.00 0.00 0.00 91 1010.3
20260508093013 0 243 4.8 8.0 0.00 0.00 0.00 91 1010.2
20260508092501 0 246 3.2 8.0 0.00 0.00 0.00 91 1010.3
20260508092002 0 247 1.6 4.8 0.00 0.00 0.00 91 1010.2
20260508091503 0 265 1.6 4.8 0.00 0.00 0.00 91 1010.2
20260508091006 1 232 3.2 4.8 0.00 0.00 0.00 91 1010.2
20260508090504 1 238 1.6 4.8 0.00 0.00 0.00 91 1010.2
20260508090011 0 238 3.2 4.8 0.00 0.00 0.00 91 1010.2
20260508085503 0 215 3.2 4.8 0.00 0.00 0.00 91 1010.2
20260508085003 0 254 3.2 4.8 0.00 0.00 0.00 91 1010.1
20260508084504 0 247 1.6 3.2 0.00 0.00 0.00 91 1010.0
20260508084003 0 137 0.0 1.6 0.00 0.00 0.00 91 1009.9
20260508083502 0 146 0.0 1.6 0.00 0.00 0.00 91 1009.9
20260508083002 0 51 0.0 3.2 0.00 0.00 0.00 91 1009.8
20260508082502 0 178 0.0 3.2 0.00 0.00 0.00 91 1009.7
20260508082002 1 221 0.0 4.8 0.00 0.00 0.00 91 1009.8
20260508081504 1 254 1.6 4.8 0.00 0.00 0.00 91 1009.8
20260508081003 0 265 1.6 4.8 0.00 0.00 0.00 91 1009.8
20260508080505 0 265 1.6 4.8 0.00 0.00 0.00 91 1009.9
20260508080004 0 232 1.6 4.8 0.00 0.00 0.00 91 1009.9
20260508075507 0 232 1.6 4.8 0.00 0.00 0.00 91 1010.0
20260508075003 0 265 0.0 6.4 0.00 0.00 0.00 91 1009.8
20260508074512 0 221 3.2 6.4 0.00 0.00 0.00 91 1009.7
20260508074003 0 212 3.2 4.8 0.00 0.00 0.00 90 1009.7
20260508073507 0 196 1.6 4.8 0.00 0.00 0.00 91 1009.6
20260508073006 0 234 1.6 4.8 0.00 0.00 0.00 91 1009.5
20260508072502 0 254 1.6 4.8 0.00 0.00 0.00 90 1009.4
20260508072003 0 291 1.6 4.8 0.00 0.00 0.00 90 1009.3
20260508071505 0 265 1.6 4.8 0.00 0.00 0.00 90 1009.2
20260508071002 0 247 1.6 3.2 0.00 0.00 0.00 90 1009.2
20260508070503 0 221 0.0 3.2 0.00 0.00 0.00 90 1009.2
20260508070005 0 93 0.0 3.2 0.00 0.00 0.00 90 1009.2
20260508065503 1 265 0.0 3.2 0.00 0.00 0.00 89 1009.3
20260508065004 0 221 0.0 3.2 0.00 0.00 0.00 89 1009.2
20260508064511 0 9 1.6 3.2 0.00 0.00 0.00 89 1009.1
20260508064003 1 334 1.6 3.2 0.00 0.00 0.00 89 1009.1
20260508063506 1 265 1.6 3.2 0.00 0.00 0.00 89 1009.2
20260508063005 1 309 0.0 1.6 0.00 0.00 0.00 89 1009.1
20260508062503 1 205 0.0 3.2 0.00 0.00 0.00 89 1009.2
20260508062003 1 178 0.0 3.2 0.00 0.00 0.00 89 1009.2
20260508061507 1 265 1.6 3.2 0.00 0.00 0.00 88 1009.2
20260508061006 1 51 1.6 4.8 0.00 0.00 0.00 88 1009.2
20260508060502 1 291 1.6 4.8 0.00 0.00 0.00 88 1009.2
20260508060004 1 236 3.2 4.8 0.00 0.00 0.00 88 1009.2
20260508055504 1 200 1.6 4.8 0.00 0.00 0.00 88 1009.3
20260508055006 1 217 3.2 4.8 0.00 0.00 0.00 87 1009.3
20260508054509 1 234 3.2 4.8 0.00 0.00 0.00 87 1009.3
20260508054003 2 221 1.6 4.8 0.00 0.00 0.00 87 1009.3
20260508053504 2 247 1.6 4.8 0.00 0.00 0.00 87 1009.3
20260508053007 2 255 3.2 4.8 0.00 0.00 0.00 87 1009.2
20260508052504 2 265 1.6 3.2 0.00 0.00 0.00 87 1009.3
20260508052004 2 238 1.6 3.2 0.00 0.00 0.00 87 1009.3
20260508051509 2 232 0.0 1.6 0.00 0.00 0.00 86 1009.4
20260508051003 2 221 0.0 1.6 0.00 0.00 0.00 86 1009.4
20260508050503 2 93 0.0 3.2 0.00 0.00 0.00 86 1009.5
20260508050006 2 309 0.0 3.2 0.00 0.00 0.00 86 1009.6
20260508045502 2 291 1.6 3.2 0.00 0.00 0.00 86 1009.5
20260508045002 2 9 0.0 3.2 0.00 0.00 0.00 85 1009.5
20260508044514 2 309 0.0 4.8 0.00 0.00 0.00 85 1009.6
20260508044004 2 238 1.6 6.4 0.00 0.00 0.00 85 1009.6
20260508043505 2 238 3.2 6.4 0.00 0.00 0.00 85 1009.7
20260508043007 2 234 4.8 6.4 0.00 0.00 0.00 85 1009.7
20260508042507 2 227 1.6 4.8 0.00 0.00 0.00 85 1009.7
20260508042006 2 190 1.6 4.8 0.00 0.00 0.00 85 1009.7
20260508041509 3 205 0.0 4.8 0.00 0.00 0.00 84 1009.7
20260508041004 3 205 1.6 4.8 0.00 0.00 0.00 84 1009.8
20260508040507 2 221 0.0 3.2 0.00 0.00 0.00 82 1009.7
20260508040013 3 265 1.6 3.2 0.00 0.00 0.00 83 1009.7
20260508035505 3 265 0.0 4.8 0.00 0.00 0.00 82 1009.7
20260508035003 3 265 1.6 4.8 0.00 0.00 0.00 82 1009.7
20260508034517 3 255 1.6 4.8 0.00 0.00 0.00 82 1009.7
20260508034004 3 238 1.6 4.8 0.00 0.00 0.00 81 1009.7
20260508033504 3 243 0.0 3.2 0.00 0.00 0.00 82 1009.7
20260508033018 3 238 0.0 3.2 0.00 0.00 0.00 82 1009.7
20260508032504 3 221 1.6 3.2 0.00 0.00 0.00 82 1009.7
20260508032006 3 221 1.6 3.2 0.00 0.00 0.00 81 1009.7
20260508031512 3 212 0.0 3.2 0.00 0.00 0.00 82 1009.7
20260508031002 4 205 0.0 3.2 0.00 0.00 0.00 81 1009.6
20260508030503 4 238 0.0 3.2 0.00 0.00 0.00 80 1009.6
20260508030014 4 205 1.6 4.8 0.00 0.00 0.00 79 1009.6
20260508025506 4 200 1.6 4.8 0.00 0.00 0.00 79 1009.5
20260508025003 4 212 0.0 4.8 0.00 0.00 0.00 79 1009.6
20260508024518 4 255 1.6 4.8 0.00 0.00 0.00 79 1009.6
20260508024003 4 275 1.6 4.8 0.00 0.00 0.00 78 1009.5
20260508023506 4 250 1.6 6.4 0.00 0.00 0.00 78 1009.5
20260508023027 5 9 0.0 9.7 0.00 0.00 0.00 77 1009.6
20260508022504 5 51 1.6 9.7 0.00 0.00 0.00 77 1009.5
20260508022007 5 24 3.2 9.7 0.00 0.00 0.00 76 1009.5
20260508021516 5 38 1.6 9.7 0.00 0.00 0.00 76 1009.4
20260508021006 5 232 3.2 8.0 0.00 0.00 0.00 77 1009.3
20260508020505 5 247 1.6 4.8 0.00 0.03 0.00 75 1009.4
20260508020017 5 9 0.0 3.2 0.00 0.05 0.00 74 1009.3
20260508015503 5 265 0.0 8.0 0.00 0.05 0.00 72 1009.2
20260508015003 6 309 1.6 8.0 0.00 0.08 0.00 70 1009.1
20260508014515 6 232 4.8 8.0 0.00 0.08 0.00 71 1009.0
20260508014007 6 241 3.2 8.0 0.00 0.08 0.00 70 1009.0
20260508013508 6 238 4.8 6.4 0.00 0.08 0.00 69 1008.9
20260508013020 7 265 3.2 6.4 0.00 0.08 0.00 69 1008.8
20260508012506 7 250 4.8 8.0 0.00 0.08 0.00 69 1008.6
20260508012004 7 247 3.2 8.0 0.00 0.08 0.00 70 1008.6
20260508011510 7 238 1.6 6.4 0.00 0.08 0.00 67 1008.5
20260508011005 7 214 3.2 6.4 0.00 0.08 0.00 68 1008.5
20260508010503 7 205 1.6 6.4 0.00 0.08 0.00 66 1008.6
20260508010027 8 221 3.2 6.4 0.00 0.08 0.00 66 1008.5
20260508005506 8 227 3.2 6.4 0.00 0.08 0.00 67 1008.5
20260508005010 8 225 3.2 6.4 0.00 0.08 0.00 64 1008.5
20260508004523 8 243 3.2 6.4 0.00 0.08 0.00 66 1008.3
20260508004007 8 243 1.6 4.8 0.00 0.10 0.00 61 1008.2
20260508003510 8 265 1.6 4.8 0.00 0.10 0.00 58 1008.1
20260508003022 9 238 1.6 4.8 0.00 0.13 0.00 58 1008.0
20260508002508 9 273 3.2 6.4 0.00 0.13 0.00 56 1008.0
20260508002011 10 232 1.6 6.4 0.00 0.13 0.00 53 1008.0
20260508001529 10 193 1.6 4.8 0.00 0.13 0.00 56 1008.0
20260508001007 10 153 1.6 4.8 0.00 0.13 0.00 51 1008.0
20260508000505 10 196 0.0 4.8 0.00 0.15 0.00 49 1008.0
20260508000018 10 282 3.2 4.8 0.00 0.15 0.00 53 1008.0
20260507235509 11 265 0.0 4.8 0.00 0.18 0.00 43 1008.0
20260507235008 11 51 1.6 6.4 0.00 0.20 0.00 43 1007.9
20260507234519 11 254 1.6 9.7 0.00 0.23 0.00 45 1007.8
20260507234005 12 319 1.6 9.7 0.00 0.25 0.00 42 1007.6
20260507233508 12 32 3.2 17.7 0.00 0.28 0.00 41 1007.6
20260507233023 12 325 4.8 17.7 0.00 0.33 0.00 41 1007.6
20260507232507 12 279 6.4 19.3 0.00 0.36 0.00 40 1007.5
20260507232012 12 51 1.6 22.5 0.00 0.36 0.00 40 1007.5
20260507231522 12 341 12.9 33.8 0.00 0.36 0.00 38 1007.5
20260507231007 12 311 14.5 33.8 0.00 0.36 0.00 37 1007.5
20260507230506 12 18 6.4 16.1 0.00 0.38 0.00 38 1007.5
20260507230024 13 315 3.2 24.1 0.00 0.38 0.00 40 1007.5
20260507225506 13 39 8.0 24.1 0.00 0.38 0.00 39 1007.4
20260507225007 13 257 6.4 16.1 0.00 0.38 0.00 40 1007.5
20260507224516 13 311 3.2 25.7 0.00 0.38 0.00 43 1007.5
20260507224004 13 330 8.0 25.7 0.00 0.38 0.00 38 1007.6
20260507223505 13 314 3.2 24.1 0.00 0.41 0.00 42 1007.5
20260507223021 13 221 9.7 24.1 0.00 0.41 0.00 37 1007.5
20260507222504 13 295 6.4 27.4 0.00 0.43 0.00 40 1007.4
20260507222004 13 284 6.4 27.4 0.00 0.43 0.00 40 1007.4
20260507221505 13 243 14.5 27.4 0.00 0.43 0.00 40 1007.2
20260507221002 13 243 4.8 27.4 0.00 0.43 0.00 41 1007.4
20260507220504 13 314 8.0 27.4 0.00 0.43 0.00 38 1007.4
20260507220010 13 288 11.3 25.7 0.00 0.46 0.00 38 1007.4
20260507215507 14 305 6.4 24.1 0.00 0.46 0.00 40 1007.4
20260507215007 14 315 9.7 17.7 0.00 0.48 0.00 36 1007.3
20260507214510 14 309 4.8 17.7 0.00 0.51 0.00 40 1007.3
20260507214006 13 59 4.8 17.7 0.00 0.51 0.00 41 1007.3
20260507213506 13 9 3.2 16.1 0.00 0.53 0.00 38 1007.4
20260507213027 13 19 3.2 20.9 0.00 0.53 0.00 41 1007.4
20260507212506 13 19 9.7 25.7 0.00 0.53 0.00 39 1007.4
20260507212009 13 281 9.7 25.7 0.00 0.56 0.00 39 1007.3
20260507211520 13 330 6.4 33.8 0.00 0.56 0.00 40 1007.3
20260507211003 13 346 12.9 33.8 0.00 0.56 0.00 39 1007.1
20260507210502 13 238 4.8 19.3 0.00 0.56 0.00 40 1007.2
20260507210017 13 340 8.0 14.5 0.00 0.58 0.00 43 1007.3
20260507205502 14 16 1.6 14.5 0.00 0.58 0.00 43 1007.3
20260507205004 14 335 4.8 14.5 0.00 0.58 0.00 45 1007.3
20260507204508 14 307 4.8 25.7 0.00 0.61 0.00 39 1007.3
20260507204003 14 275 9.7 29.0 0.00 0.61 0.00 39 1007.3
20260507203509 15 249 9.7 29.0 0.00 0.64 0.00 40 1007.3
20260507203018 15 334 6.4 27.4 0.00 0.64 0.00 40 1007.4
20260507202505 15 313 9.7 30.6 0.00 0.64 0.00 38 1007.4
20260507202010 15 261 8.0 38.6 0.00 0.64 0.00 37 1007.3
20260507201520 15 282 16.1 38.6 0.00 0.64 0.00 38 1007.2
20260507201007 15 319 6.4 27.4 0.00 0.66 0.00 39 1007.3
20260507200507 15 215 8.0 27.4 0.00 0.66 0.00 36 1007.2
20260507200044 15 294 16.1 27.4 0.00 0.69 0.00 35 1007.2
20260507195506 15 312 9.7 25.7 0.00 0.69 0.00 40 1007.3
20260507195005 15 31 8.0 22.5 0.00 0.69 0.00 41 1007.2
20260507194508 15 46 8.0 25.7 0.00 0.69 0.00 36 1007.2
20260507194003 14 325 8.0 32.2 0.00 0.71 0.00 42 1007.1
20260507193505 14 33 11.3 32.2 0.00 0.71 0.00 37 1007.3
20260507193020 15 280 9.7 30.6 0.00 0.71 0.00 42 1007.4
20260507192505 15 340 8.0 30.6 0.00 0.74 0.00 39 1007.2
20260507192006 14 40 12.9 37.0 0.00 0.74 0.00 36 1007.4
20260507191525 15 15 19.3 37.0 0.00 0.76 0.00 42 1007.2
20260507191006 15 254 8.0 29.0 0.00 0.79 0.00 44 1007.5
20260507190506 15 331 6.4 20.9 0.00 0.84 0.00 37 1007.6
20260507190031 15 332 9.7 27.4 0.00 0.89 0.00 40 1007.7
20260507185507 15 306 8.0 27.4 0.00 0.94 0.00 42 1007.7
20260507185007 15 27 11.3 27.4 0.00 0.97 0.00 42 1007.7
20260507184523 15 337 14.5 27.4 0.00 0.99 0.00 34 1007.8
20260507184006 15 27 12.9 24.1 0.00 1.02 0.00 36 1007.8
20260507183506 14 196 6.4 24.1 0.00 1.02 0.00 36 1007.8
20260507183008 14 269 8.0 22.5 0.00 1.02 0.00 43 1007.8
20260507182504 13 51 1.6 22.5 0.00 1.04 0.00 39 1007.9
20260507182008 13 282 12.9 25.7 0.00 1.07 0.00 41 1008.1
20260507181513 14 321 6.4 30.6 0.00 1.07 0.00 38 1008.1
20260507181005 15 347 9.7 30.6 0.00 1.09 0.00 39 1008.2
20260507180506 14 100 11.3 41.8 0.00 1.12 0.00 44 1008.2
20260507180018 15 44 16.1 41.8 0.00 1.14 0.00 39 1008.0
20260507175508 15 9 14.5 30.6 0.00 1.17 0.00 40 1008.0
20260507175012 15 282 6.4 25.7 0.00 1.19 0.00 42 1008.0
20260507174524 14 198 4.8 25.7 0.00 1.22 0.00 48 1008.1
20260507174011 14 30 8.0 20.9 0.00 1.24 0.00 45 1008.0
20260507173512 14 72 8.0 17.7 0.00 1.27 0.00 43 1008.0
20260507173026 14 298 6.4 27.4 0.00 1.30 0.00 40 1008.1
20260507172509 14 319 12.9 27.4 0.00 1.32 0.00 41 1008.1
20260507172011 14 238 3.2 17.7 0.00 1.32 0.00 48 1008.0
20260507171513 13 93 8.0 29.0 0.00 1.32 0.00 42 1008.0
20260507171010 14 306 14.5 29.0 0.00 1.37 0.00 43 1008.1
20260507170505 15 210 4.8 29.0 0.00 1.40 0.00 39 1008.1
20260507170016 15 53 11.3 29.0 0.00 1.42 0.00 49 1008.3
20260507165507 14 338 9.7 29.0 0.00 1.42 0.00 44 1008.6
20260507165007 14 38 17.7 29.0 0.00 1.45 0.00 43 1008.7
20260507164520 15 325 12.9 27.4 0.00 1.47 0.00 51 1008.7
20260507164009 14 309 4.8 27.4 0.00 1.47 0.00 53 1008.8
20260507163512 13 34 14.5 27.4 0.00 1.47 0.00 54 1009.0
20260507163026 13 55 11.3 20.9 0.00 1.47 0.00 47 1009.1
20260507162514 13 15 4.8 20.9 0.00 1.47 0.00 52 1009.2
20260507162009 13 23 8.0 20.9 0.00 1.52 0.00 55 1009.1
20260507161525 12 259 3.2 25.7 0.00 1.52 0.00 49 1009.2
20260507161008 13 309 3.2 30.6 0.00 1.52 0.00 43 1009.1
20260507160509 13 347 17.7 30.6 0.00 1.52 0.00 45 1009.1
20260507160021 14 20 11.3 29.0 0.00 1.52 0.00 50 1009.1
20260507155504 13 44 11.3 45.1 0.00 1.52 0.00 47 1009.1
20260507155006 13 347 20.9 45.1 0.00 1.52 0.00 43 1009.3
20260507154522 13 31 17.7 37.0 0.00 1.52 0.00 47 1009.3
20260507154011 13 69 17.7 37.0 0.00 1.52 0.00 48 1009.5
20260507153508 13 33 16.1 32.2 0.00 1.52 0.00 48 1009.7
20260507153022 13 146 12.9 32.2 0.00 1.52 0.00 46 1009.6
20260507152508 13 34 8.0 33.8 0.00 1.52 0.00 44 1009.6
20260507152013 12 24 20.9 32.2 0.00 1.52 0.00 43 1009.6
20260507151527 13 323 9.7 29.0 0.00 1.52 0.00 53 1009.7
20260507151008 12 338 16.1 33.8 0.00 1.52 0.00 48 1009.5
20260507150508 12 47 16.1 33.8 0.00 1.52 0.00 48 1009.7
20260507150027 12 61 17.7 54.7 0.00 1.52 0.00 47 1009.6
20260507145511 12 115 12.9 54.7 0.00 1.52 0.00 50 1009.7
20260507145010 12 338 16.1 37.0 0.00 1.52 0.00 49 1009.8
20260507144525 12 36 17.7 43.5 0.00 1.52 0.00 50 1009.8
20260507144005 12 17 16.1 43.5 0.00 1.52 0.00 50 1009.7
20260507143512 12 43 16.1 41.8 0.00 1.52 0.00 47 1009.7
20260507143022 12 329 16.1 33.8 0.00 1.52 0.00 46 1009.8
20260507142509 12 9 16.1 32.2 0.00 1.52 0.00 50 1009.7
20260507142010 12 330 17.7 33.8 0.00 1.52 0.00 48 1009.7
20260507141528 12 36 25.7 37.0 0.00 1.52 0.00 50 1009.6
20260507141012 12 39 20.9 45.1 0.00 1.52 0.00 54 1009.6
20260507140510 12 55 22.5 45.1 0.00 1.52 0.00 52 1009.6
20260507140032 12 332 24.1 45.1 0.00 1.52 0.00 49 1009.7
20260507135507 12 347 19.3 33.8 0.00 1.52 0.00 51 1009.7
20260507135009 12 21 9.7 22.5 0.00 1.52 0.00 56 1009.4
20260507134526 12 28 6.4 20.9 0.00 1.52 0.00 56 1009.5
20260507134001 11 323 6.4 22.5 0.00 1.52 0.00 58 1009.5